Orbital Elements at Epoch 2459000.5 (2020-May-31.0) TDB
Reference: JPL 21 (heliocentric ecliptic J2000)
Element | Value | Uncertainty (1-sigma) | Units |
e | .1884694605975032 | 5.3833e-08 | |
a | 2.888529793256231 | 1.6602e-08 | au |
q | 2.344130141201412 | 1.5348e-07 | au |
i | 8.087425494207308 | 5.7099e-06 | deg |
node | 175.4642332013745 | 2.1879e-05 | deg |
peri | 209.7455300201684 | 2.4028e-05 | deg |
M | 179.8314423713688 | 1.073e-05 | deg |
tp | 2458104.770596426565 (2017-Dec-17.27059643) | 5.1187e-05 | TDB |
period | 1793.137957602104 4.91 | 1.5459e-05 4.232e-08 | d yr |
n | .2007653669221382 | 1.7309e-09 | deg/d |
Q | 3.43292944531105 | 1.9731e-08 | au |
|
| | Orbit Determination Parameters
Additional Information
|